| time (UTC) | temp F | wind direction | speed knots | gust knots | rain 1hr in | rain 24hr in | rain mn in | humidity % | barometer mb |
| 20260508122540 | 57 | 90 | 1.7 | 1.7 | 0.00 | 0.00 | 0.00 | 73 | 1018.9 |
| 20260508122018 | 57 | 112 | 4.3 | 4.3 | 0.00 | 0.00 | 0.00 | 72 | 1018.9 |
| 20260508121221 | 57 | 90 | 1.7 | 1.7 | 0.00 | 0.00 | 0.00 | 72 | 1018.9 |
| 20260508120659 | 57 | 90 | 5.2 | 5.2 | 0.00 | 0.00 | 0.00 | 78 | 1018.9 |
| 20260508120137 | 57 | 90 | 4.3 | 4.3 | 0.00 | 0.00 | 0.00 | 75 | 1018.9 |
| 20260508115615 | 57 | 112 | 5.2 | 5.2 | 0.00 | 0.00 | 0.00 | 72 | 1018.9 |
| 20260508115052 | 57 | 90 | 2.6 | 2.6 | 0.00 | 0.00 | 0.00 | 72 | 1019.0 |
| 20260508114530 | 57 | 112 | 0.9 | 0.9 | 0.00 | 0.00 | 0.00 | 72 | 1018.9 |
| 20260508114008 | 57 | 112 | 3.5 | 3.5 | 0.00 | 0.00 | 0.00 | 70 | 1018.9 |
| 20260508113446 | 58 | 90 | 2.6 | 3.5 | 0.00 | 0.00 | 0.00 | 69 | 1018.8 |
| 20260508112924 | 59 | 135 | 0.0 | 0.0 | 0.00 | 0.00 | 0.00 | 68 | 1018.8 |
| 20260508112402 | 60 | 112 | 5.2 | 5.2 | 0.00 | 0.00 | 0.00 | 66 | 1018.7 |
| 20260508111838 | 61 | 158 | 0.0 | 0.0 | 0.00 | 0.00 | 0.00 | 65 | 1018.6 |
| 20260508111316 | 61 | 202 | 0.0 | 0.0 | 0.00 | 0.00 | 0.00 | 65 | 1018.6 |
| 20260508110754 | 61 | 292 | 0.0 | 0.0 | 0.00 | 0.00 | 0.00 | 67 | 1018.5 |
| 20260508105956 | 61 | 292 | 0.0 | 0.0 | 0.00 | 0.00 | 0.00 | 65 | 1018.5 |
| 20260508104926 | 61 | 112 | 3.5 | 3.5 | 0.00 | 0.00 | 0.00 | 64 | 1018.5 |
| 20260508104130 | 60 | 68 | 1.7 | 1.7 | 0.00 | 0.00 | 0.00 | 66 | 1018.6 |
| 20260508103608 | 60 | 90 | 4.3 | 4.3 | 0.00 | 0.00 | 0.00 | 66 | 1018.5 |
| 20260508103046 | 60 | 22 | 0.0 | 0.0 | 0.00 | 0.00 | 0.00 | 69 | 1018.6 |
| 20260508102524 | 60 | 90 | 1.7 | 1.7 | 0.00 | 0.00 | 0.00 | 67 | 1018.6 |
| 20260508102002 | 60 | 90 | 3.5 | 3.5 | 0.00 | 0.00 | 0.00 | 67 | 1018.6 |
| 20260508101439 | 60 | 68 | 0.0 | 0.0 | 0.00 | 0.00 | 0.00 | 68 | 1018.6 |
| 20260508100917 | 60 | 135 | 0.9 | 0.9 | 0.00 | 0.00 | 0.00 | 67 | 1018.7 |
| 20260508100355 | 60 | 90 | 0.0 | 0.0 | 0.00 | 0.00 | 0.00 | 69 | 1018.7 |
| 20260508095833 | 60 | 248 | 0.0 | 0.0 | 0.00 | 0.00 | 0.00 | 68 | 1018.6 |
| 20260508095311 | 60 | 112 | 1.7 | 1.7 | 0.00 | 0.00 | 0.00 | 67 | 1018.6 |
| 20260508094749 | 60 | 202 | 0.0 | 0.0 | 0.00 | 0.00 | 0.00 | 70 | 1018.5 |
| 20260508094227 | 59 | 90 | 1.7 | 1.7 | 0.00 | 0.00 | 0.00 | 69 | 1018.5 |
| 20260508093705 | 59 | 90 | 0.0 | 0.0 | 0.00 | 0.00 | 0.00 | 71 | 1018.5 |
| 20260508093143 | 59 | 90 | 4.3 | 4.3 | 0.00 | 0.00 | 0.00 | 69 | 1018.5 |
| 20260508092621 | 60 | 0 | 0.0 | 0.0 | 0.00 | 0.00 | 0.00 | 74 | 1018.4 |
| 20260508092059 | 60 | 68 | 3.5 | 3.5 | 0.00 | 0.00 | 0.00 | 73 | 1018.4 |
| 20260508091537 | 60 | 68 | 2.6 | 2.6 | 0.00 | 0.00 | 0.00 | 74 | 1018.4 |
| 20260508091015 | 60 | 90 | 1.7 | 1.7 | 0.00 | 0.00 | 0.00 | 72 | 1018.5 |
| 20260508090453 | 59 | 68 | 0.0 | 0.0 | 0.00 | 0.00 | 0.00 | 72 | 1018.5 |
| 20260508085656 | 57 | 112 | 0.0 | 0.0 | 0.00 | 0.00 | 0.00 | 75 | 1018.5 |
| 20260508084625 | 57 | 292 | 0.0 | 0.0 | 0.00 | 0.00 | 0.00 | 76 | 1018.5 |
| 20260508084103 | 57 | 45 | 2.6 | 2.6 | 0.00 | 0.00 | 0.00 | 76 | 1018.5 |
| 20260508083539 | 57 | 68 | 0.9 | 0.9 | 0.00 | 0.00 | 0.00 | 74 | 1018.5 |
| 20260508083017 | 57 | 68 | 3.5 | 3.5 | 0.00 | 0.00 | 0.00 | 73 | 1018.6 |
| 20260508082454 | 56 | 90 | 4.3 | 4.3 | 0.00 | 0.00 | 0.00 | 76 | 1018.6 |
| 20260508081932 | 56 | 112 | 1.7 | 1.7 | 0.00 | 0.00 | 0.00 | 76 | 1018.6 |
| 20260508081410 | 56 | 90 | 0.0 | 0.0 | 0.00 | 0.00 | 0.00 | 76 | 1018.5 |
| 20260508080848 | 57 | 90 | 0.0 | 0.0 | 0.00 | 0.00 | 0.00 | 75 | 1018.5 |
| 20260508080326 | 56 | 90 | 0.0 | 0.0 | 0.00 | 0.00 | 0.00 | 75 | 1018.5 |
| 20260508075804 | 56 | 68 | 0.0 | 0.0 | 0.00 | 0.00 | 0.00 | 76 | 1018.5 |
| 20260508075241 | 55 | 68 | 0.0 | 0.0 | 0.00 | 0.00 | 0.00 | 75 | 1018.5 |
| 20260508074719 | 53 | 68 | 0.0 | 0.0 | 0.00 | 0.00 | 0.00 | 76 | 1018.5 |
| 20260508073649 | 53 | 68 | 0.0 | 0.0 | 0.00 | 0.00 | 0.00 | 80 | 1018.4 |
| 20260508073127 | 52 | 90 | 2.6 | 2.6 | 0.00 | 0.00 | 0.00 | 82 | 1018.4 |
| 20260508072604 | 52 | 90 | 3.5 | 3.5 | 0.00 | 0.00 | 0.00 | 81 | 1018.4 |
| 20260508072042 | 52 | 90 | 0.0 | 0.0 | 0.00 | 0.00 | 0.00 | 82 | 1018.3 |
| 20260508071520 | 52 | 90 | 0.0 | 0.0 | 0.00 | 0.00 | 0.00 | 82 | 1018.3 |
| 20260508070958 | 51 | 90 | 0.0 | 0.0 | 0.00 | 0.00 | 0.00 | 85 | 1018.2 |
| 20260508070436 | 50 | 90 | 0.0 | 0.0 | 0.00 | 0.00 | 0.00 | 87 | 1018.2 |
| 20260508065914 | 50 | 90 | 0.0 | 0.0 | 0.00 | 0.00 | 0.00 | 87 | 1018.2 |
| 20260508065352 | 50 | 90 | 0.0 | 0.0 | 0.00 | 0.00 | 0.00 | 87 | 1018.1 |
| 20260508064830 | 50 | 90 | 0.0 | 0.0 | 0.00 | 0.00 | 0.00 | 87 | 1018.1 |
| 20260508064308 | 50 | 90 | 0.0 | 0.0 | 0.00 | 0.00 | 0.00 | 86 | 1018.0 |
| 20260508063747 | 50 | 90 | 0.0 | 0.0 | 0.00 | 0.00 | 0.00 | 86 | 1018.0 |
| 20260508063225 | 49 | 90 | 0.0 | 0.0 | 0.00 | 0.00 | 0.00 | 86 | 1018.0 |
| 20260508062703 | 49 | 90 | 0.0 | 0.0 | 0.00 | 0.00 | 0.00 | 86 | 1017.9 |
| 20260508061906 | 48 | 90 | 0.0 | 0.0 | 0.00 | 0.00 | 0.00 | 89 | 1017.8 |
| 20260508061344 | 48 | 90 | 0.0 | 0.0 | 0.00 | 0.00 | 0.00 | 90 | 1017.8 |
| 20260508060822 | 47 | 90 | 0.0 | 0.0 | 0.00 | 0.00 | 0.00 | 90 | 1017.7 |
| 20260508060300 | 47 | 90 | 0.0 | 0.0 | 0.00 | 0.00 | 0.00 | 90 | 1017.7 |
| 20260508055738 | 47 | 90 | 0.0 | 0.0 | 0.00 | 0.00 | 0.00 | 90 | 1017.7 |
| 20260508055216 | 47 | 90 | 0.0 | 0.0 | 0.00 | 0.00 | 0.00 | 91 | 1017.6 |
| 20260508054654 | 46 | 90 | 0.0 | 0.0 | 0.00 | 0.00 | 0.00 | 92 | 1017.6 |
| 20260508054133 | 46 | 90 | 0.0 | 0.0 | 0.00 | 0.00 | 0.00 | 92 | 1017.5 |
| 20260508053611 | 45 | 90 | 0.0 | 0.0 | 0.00 | 0.00 | 0.00 | 93 | 1017.5 |
| 20260508053049 | 45 | 90 | 0.0 | 0.0 | 0.00 | 0.00 | 0.00 | 93 | 1017.5 |
| 20260508052527 | 45 | 90 | 0.0 | 0.0 | 0.00 | 0.00 | 0.00 | 93 | 1017.4 |
| 20260508052006 | 44 | 90 | 0.0 | 0.0 | 0.00 | 0.00 | 0.00 | 93 | 1017.4 |
| 20260508051443 | 44 | 90 | 0.0 | 0.0 | 0.00 | 0.00 | 0.00 | 92 | 1017.3 |
| 20260508050647 | 44 | 90 | 0.0 | 0.0 | 0.00 | 0.00 | 0.00 | 92 | 1017.3 |
| 20260508050125 | 45 | 90 | 0.0 | 0.0 | 0.00 | 0.00 | 0.00 | 92 | 1017.3 |
| 20260508045603 | 45 | 90 | 0.0 | 0.0 | 0.00 | 0.00 | 0.00 | 92 | 1017.3 |
| 20260508045041 | 44 | 90 | 0.0 | 0.0 | 0.00 | 0.00 | 0.00 | 93 | 1017.2 |
| 20260508044246 | 44 | 90 | 0.0 | 0.0 | 0.00 | 0.00 | 0.00 | 93 | 1017.2 |
| 20260508043724 | 44 | 90 | 0.0 | 0.0 | 0.00 | 0.00 | 0.00 | 92 | 1017.2 |
| 20260508042928 | 44 | 90 | 0.0 | 0.0 | 0.00 | 0.00 | 0.00 | 92 | 1017.2 |
| 20260508042406 | 44 | 90 | 0.0 | 0.0 | 0.00 | 0.00 | 0.00 | 92 | 1017.2 |
| 20260508041844 | 44 | 90 | 0.0 | 0.0 | 0.00 | 0.00 | 0.00 | 91 | 1017.2 |
| 20260508041049 | 45 | 90 | 0.0 | 0.0 | 0.00 | 0.00 | 0.00 | 91 | 1017.2 |
| 20260508040528 | 45 | 90 | 0.0 | 0.0 | 0.00 | 0.00 | 0.00 | 91 | 1017.1 |
| 20260508040006 | 45 | 90 | 0.0 | 0.0 | 0.00 | 0.00 | 0.00 | 91 | 1017.1 |
| 20260508035444 | 45 | 90 | 1.7 | 1.7 | 0.00 | 0.00 | 0.00 | 91 | 1017.1 |
| 20260508034922 | 45 | 68 | 0.0 | 0.0 | 0.00 | 0.00 | 0.00 | 90 | 1017.0 |
| 20260508034400 | 45 | 68 | 0.0 | 0.0 | 0.00 | 0.00 | 0.00 | 90 | 1017.0 |
| 20260508033838 | 45 | 112 | 0.0 | 0.0 | 0.00 | 0.00 | 0.00 | 90 | 1016.9 |
| 20260508033041 | 45 | 90 | 0.0 | 0.0 | 0.00 | 0.00 | 0.00 | 90 | 1017.0 |
| 20260508032519 | 46 | 68 | 0.0 | 0.0 | 0.00 | 0.00 | 0.00 | 89 | 1017.0 |
| 20260508031957 | 46 | 68 | 0.0 | 0.0 | 0.00 | 0.00 | 0.00 | 88 | 1016.9 |
| 20260508031436 | 47 | 270 | 2.6 | 2.6 | 0.00 | 0.00 | 0.00 | 87 | 1016.9 |
| 20260508030914 | 47 | 112 | 0.0 | 0.0 | 0.00 | 0.00 | 0.00 | 85 | 1016.8 |
| 20260508030352 | 48 | 112 | 0.0 | 0.0 | 0.00 | 0.00 | 0.00 | 85 | 1016.8 |
| 20260508025830 | 48 | 202 | 0.0 | 0.0 | 0.00 | 0.00 | 0.00 | 84 | 1016.8 |
| 20260508025309 | 48 | 202 | 0.0 | 0.0 | 0.00 | 0.00 | 0.00 | 85 | 1016.7 |
| 20260508024747 | 48 | 90 | 0.0 | 0.0 | 0.00 | 0.00 | 0.00 | 86 | 1016.8 |
| 20260508023951 | 48 | 90 | 0.0 | 0.0 | 0.00 | 0.00 | 0.00 | 85 | 1016.8 |
| 20260508023429 | 48 | 90 | 0.0 | 0.0 | 0.00 | 0.00 | 0.00 | 85 | 1016.8 |
| 20260508022907 | 48 | 90 | 0.0 | 0.0 | 0.00 | 0.00 | 0.00 | 85 | 1016.7 |
| 20260508022345 | 48 | 90 | 0.0 | 0.0 | 0.00 | 0.00 | 0.00 | 85 | 1016.8 |
| 20260508021824 | 48 | 112 | 1.7 | 1.7 | 0.00 | 0.00 | 0.00 | 85 | 1016.8 |
| 20260508021302 | 48 | 90 | 3.5 | 3.5 | 0.00 | 0.00 | 0.00 | 85 | 1016.7 |
| 20260508020740 | 48 | 112 | 2.6 | 1.7 | 0.00 | 0.00 | 0.00 | 84 | 1016.7 |
| 20260508015943 | 48 | 112 | 4.3 | 4.3 | 0.00 | 0.00 | 0.00 | 85 | 1016.7 |
| 20260508015421 | 47 | 90 | 1.7 | 1.7 | 0.00 | 0.00 | 0.00 | 86 | 1016.7 |
| 20260508014626 | 48 | 90 | 2.6 | 2.6 | 0.00 | 0.00 | 0.00 | 87 | 1016.7 |
| 20260508014105 | 48 | 112 | 1.7 | 1.7 | 0.00 | 0.00 | 0.00 | 84 | 1016.7 |
| 20260508013308 | 48 | 112 | 1.7 | 1.7 | 0.00 | 0.00 | 0.00 | 85 | 1016.7 |
| 20260508012746 | 47 | 112 | 4.3 | 4.3 | 0.00 | 0.00 | 0.00 | 84 | 1016.7 |
| 20260508011949 | 47 | 112 | 4.3 | 4.3 | 0.00 | 0.00 | 0.00 | 86 | 1016.8 |
| 20260508011428 | 46 | 90 | 1.7 | 1.7 | 0.00 | 0.00 | 0.00 | 87 | 1016.8 |
| 20260508010906 | 46 | 68 | 1.7 | 1.7 | 0.00 | 0.00 | 0.00 | 87 | 1016.8 |
| 20260508010345 | 47 | 112 | 1.7 | 1.7 | 0.00 | 0.00 | 0.00 | 87 | 1016.9 |
| 20260508005823 | 47 | 112 | 0.0 | 0.0 | 0.00 | 0.00 | 0.00 | 85 | 1016.9 |
| 20260508005305 | 48 | 292 | 0.0 | 0.0 | 0.00 | 0.00 | 0.00 | 83 | 1016.9 |
| 20260508004506 | 49 | 270 | 0.0 | 0.0 | 0.00 | 0.00 | 0.00 | 82 | 1016.9 |
| 20260508003944 | 50 | 292 | 0.0 | 0.0 | 0.00 | 0.00 | 0.00 | 80 | 1016.9 |
| 20260508003148 | 51 | 292 | 0.0 | 0.0 | 0.00 | 0.00 | 0.00 | 79 | 1016.9 |
| 20260508002626 | 51 | 292 | 1.7 | 1.7 | 0.00 | 0.00 | 0.00 | 77 | 1016.9 |
| 20260508002104 | 52 | 135 | 0.0 | 1.7 | 0.00 | 0.00 | 0.00 | 77 | 1016.9 |
| 20260508001543 | 52 | 315 | 0.0 | 0.0 | 0.00 | 0.00 | 0.00 | 76 | 1016.9 |
| 20260508001021 | 52 | 202 | 0.0 | 0.0 | 0.00 | 0.00 | 0.00 | 76 | 1016.9 |
| 20260508000459 | 52 | 202 | 0.0 | 0.0 | 0.00 | 0.00 | 0.00 | 76 | 1016.9 |
| 20260507235938 | 52 | 292 | 1.7 | 1.7 | 0.00 | 0.00 | 0.00 | 76 | 1016.9 |
| 20260507235417 | 51 | 292 | 2.6 | 0.9 | 0.00 | 0.00 | 0.00 | 77 | 1016.8 |
| 20260507234751 | 51 | 135 | 0.0 | 0.0 | 0.00 | 0.00 | 0.00 | 77 | 1016.8 |
| 20260507234230 | 52 | 158 | 0.0 | 0.0 | 0.00 | 0.00 | 0.00 | 77 | 1016.9 |
| 20260507233434 | 52 | 135 | 0.9 | 0.9 | 0.00 | 0.00 | 0.00 | 77 | 1016.8 |
| 20260507232913 | 52 | 135 | 0.0 | 0.0 | 0.00 | 0.00 | 0.00 | 77 | 1016.8 |
| 20260507232351 | 51 | 68 | 0.0 | 0.0 | 0.00 | 0.00 | 0.00 | 77 | 1016.8 |
| 20260507231556 | 52 | 112 | 1.7 | 1.7 | 0.00 | 0.00 | 0.00 | 77 | 1016.8 |
| 20260507231035 | 52 | 158 | 0.0 | 0.0 | 0.00 | 0.00 | 0.00 | 77 | 1016.8 |
| 20260507230514 | 51 | 22 | 0.0 | 0.0 | 0.00 | 0.00 | 0.00 | 77 | 1016.8 |
| 20260507225953 | 51 | 45 | 0.0 | 0.0 | 0.00 | 0.00 | 0.00 | 78 | 1016.8 |
| 20260507225431 | 51 | 45 | 0.0 | 0.0 | 0.00 | 0.00 | 0.00 | 78 | 1016.8 |
| 20260507224910 | 51 | 22 | 0.0 | 0.0 | 0.00 | 0.00 | 0.00 | 78 | 1016.8 |
| 20260507224349 | 51 | 22 | 0.0 | 0.0 | 0.00 | 0.00 | 0.00 | 77 | 1016.8 |
| 20260507223828 | 52 | 22 | 0.0 | 0.0 | 0.00 | 0.00 | 0.00 | 77 | 1016.8 |
| 20260507223033 | 52 | 22 | 0.0 | 0.0 | 0.00 | 0.00 | 0.00 | 76 | 1016.7 |
| 20260507222511 | 52 | 22 | 1.7 | 1.7 | 0.00 | 0.00 | 0.00 | 77 | 1016.7 |
| 20260507221950 | 52 | 22 | 1.7 | 1.7 | 0.00 | 0.00 | 0.00 | 77 | 1016.7 |
| 20260507221429 | 52 | 22 | 0.0 | 0.0 | 0.00 | 0.00 | 0.00 | 76 | 1016.8 |
| 20260507220908 | 52 | 22 | 0.0 | 0.0 | 0.00 | 0.00 | 0.00 | 75 | 1016.8 |
| 20260507220347 | 52 | 22 | 0.0 | 0.0 | 0.00 | 0.00 | 0.00 | 75 | 1016.7 |
| 20260507215318 | 53 | 22 | 1.7 | 1.7 | 0.00 | 0.00 | 0.00 | 75 | 1016.8 |
| 20260507214756 | 53 | 22 | 0.0 | 0.0 | 0.00 | 0.00 | 0.00 | 74 | 1016.8 |
| 20260507214235 | 53 | 22 | 0.0 | 0.0 | 0.00 | 0.00 | 0.00 | 73 | 1016.8 |
| 20260507213440 | 53 | 22 | 0.0 | 0.0 | 0.00 | 0.00 | 0.00 | 73 | 1016.8 |
| 20260507212919 | 53 | 22 | 0.0 | 0.0 | 0.00 | 0.00 | 0.00 | 73 | 1016.8 |
| 20260507212358 | 53 | 22 | 0.0 | 0.0 | 0.00 | 0.00 | 0.00 | 73 | 1016.7 |
| 20260507211837 | 53 | 22 | 0.0 | 0.0 | 0.00 | 0.00 | 0.00 | 73 | 1016.7 |
| 20260507211316 | 53 | 135 | 0.0 | 0.0 | 0.00 | 0.00 | 0.00 | 72 | 1016.7 |
| 20260507210520 | 53 | 202 | 0.0 | 0.0 | 0.00 | 0.00 | 0.00 | 72 | 1016.7 |
| 20260507205959 | 53 | 135 | 0.0 | 0.0 | 0.00 | 0.00 | 0.00 | 72 | 1016.7 |
| 20260507205437 | 53 | 112 | 0.0 | 0.0 | 0.00 | 0.00 | 0.00 | 71 | 1016.6 |
| 20260507204916 | 53 | 180 | 0.0 | 0.0 | 0.00 | 0.00 | 0.00 | 71 | 1016.6 |
| 20260507204355 | 53 | 112 | 0.0 | 0.0 | 0.00 | 0.00 | 0.00 | 72 | 1016.6 |
| 20260507203325 | 53 | 112 | 0.0 | 0.0 | 0.00 | 0.00 | 0.00 | 72 | 1016.5 |
| 20260507202804 | 53 | 112 | 0.0 | 0.0 | 0.00 | 0.00 | 0.00 | 72 | 1016.5 |
| 20260507202243 | 53 | 112 | 0.0 | 0.0 | 0.00 | 0.00 | 0.00 | 72 | 1016.4 |
| 20260507201447 | 53 | 112 | 1.7 | 1.7 | 0.00 | 0.00 | 0.00 | 73 | 1016.2 |
| 20260507200926 | 53 | 135 | 0.0 | 0.0 | 0.00 | 0.00 | 0.00 | 73 | 1016.2 |
| 20260507200131 | 53 | 135 | 0.0 | 0.0 | 0.00 | 0.00 | 0.00 | 72 | 1016.2 |
| 20260507195610 | 54 | 135 | 0.0 | 0.0 | 0.00 | 0.00 | 0.00 | 71 | 1016.1 |
| 20260507194541 | 54 | 135 | 0.0 | 0.0 | 0.00 | 0.00 | 0.00 | 70 | 1016.1 |
| 20260507194020 | 54 | 135 | 0.0 | 0.0 | 0.00 | 0.00 | 0.00 | 70 | 1016.1 |
| 20260507193459 | 54 | 135 | 0.0 | 0.0 | 0.00 | 0.00 | 0.00 | 70 | 1016.1 |
| 20260507192938 | 54 | 135 | 0.0 | 0.0 | 0.00 | 0.00 | 0.00 | 69 | 1016.0 |
| 20260507192417 | 55 | 135 | 0.0 | 0.0 | 0.00 | 0.00 | 0.00 | 68 | 1016.0 |
| 20260507191856 | 55 | 135 | 0.0 | 0.0 | 0.00 | 0.00 | 0.00 | 67 | 1015.9 |
| 20260507191335 | 55 | 135 | 0.0 | 0.0 | 0.00 | 0.00 | 0.00 | 67 | 1015.9 |
| 20260507190814 | 55 | 135 | 0.0 | 0.0 | 0.00 | 0.00 | 0.00 | 66 | 1015.8 |
| 20260507190253 | 55 | 112 | 0.0 | 0.0 | 0.00 | 0.00 | 0.00 | 66 | 1015.8 |
| 20260507185732 | 55 | 112 | 0.0 | 0.0 | 0.00 | 0.00 | 0.00 | 66 | 1015.8 |
| 20260507185211 | 55 | 135 | 0.0 | 0.0 | 0.00 | 0.00 | 0.00 | 66 | 1015.8 |
| 20260507184650 | 55 | 135 | 0.0 | 0.0 | 0.00 | 0.00 | 0.00 | 66 | 1015.8 |
| 20260507184128 | 56 | 135 | 1.7 | 1.7 | 0.00 | 0.00 | 0.00 | 65 | 1015.7 |
| 20260507183607 | 56 | 112 | 0.0 | 0.0 | 0.00 | 0.00 | 0.00 | 64 | 1015.7 |
| 20260507182539 | 56 | 90 | 0.9 | 0.9 | 0.00 | 0.00 | 0.00 | 64 | 1015.7 |
| 20260507182018 | 56 | 112 | 0.9 | 0.9 | 0.00 | 0.00 | 0.00 | 64 | 1015.7 |
| 20260507181456 | 56 | 202 | 0.0 | 0.0 | 0.00 | 0.00 | 0.00 | 64 | 1015.6 |
| 20260507180936 | 56 | 112 | 2.6 | 2.6 | 0.00 | 0.00 | 0.00 | 63 | 1015.6 |
| 20260507180415 | 56 | 90 | 1.7 | 1.7 | 0.00 | 0.00 | 0.00 | 64 | 1015.6 |
| 20260507175854 | 56 | 90 | 1.7 | 1.7 | 0.00 | 0.00 | 0.00 | 63 | 1015.6 |
| 20260507175332 | 57 | 158 | 0.0 | 0.0 | 0.00 | 0.00 | 0.00 | 65 | 1015.6 |
| 20260507174812 | 57 | 112 | 1.7 | 1.7 | 0.00 | 0.00 | 0.00 | 63 | 1015.6 |
| 20260507174251 | 57 | 112 | 0.0 | 0.0 | 0.00 | 0.00 | 0.00 | 64 | 1015.6 |
| 20260507173729 | 57 | 112 | 0.0 | 0.0 | 0.00 | 0.00 | 0.00 | 64 | 1015.6 |
| 20260507173208 | 56 | 90 | 0.0 | 0.0 | 0.00 | 0.00 | 0.00 | 65 | 1015.7 |
| 20260507172647 | 57 | 112 | 1.7 | 1.7 | 0.00 | 0.00 | 0.00 | 63 | 1015.7 |
| 20260507171852 | 57 | 112 | 4.3 | 4.3 | 0.00 | 0.00 | 0.00 | 62 | 1015.7 |
| 20260507171331 | 57 | 112 | 1.7 | 1.7 | 0.00 | 0.00 | 0.00 | 63 | 1015.7 |
| 20260507170810 | 57 | 112 | 1.7 | 1.7 | 0.00 | 0.00 | 0.00 | 63 | 1015.6 |
| 20260507170249 | 57 | 135 | 0.9 | 0.9 | 0.00 | 0.00 | 0.00 | 63 | 1015.6 |
| 20260507165728 | 57 | 112 | 1.7 | 1.7 | 0.00 | 0.00 | 0.00 | 62 | 1015.6 |
| 20260507165207 | 57 | 90 | 4.3 | 4.3 | 0.00 | 0.00 | 0.00 | 62 | 1015.7 |
| 20260507164646 | 57 | 112 | 0.0 | 0.0 | 0.00 | 0.00 | 0.00 | 63 | 1015.7 |
| 20260507164125 | 57 | 68 | 5.2 | 5.2 | 0.00 | 0.00 | 0.00 | 63 | 1015.8 |
| 20260507163604 | 57 | 135 | 2.6 | 2.6 | 0.00 | 0.00 | 0.00 | 62 | 1015.8 |
| 20260507163043 | 57 | 112 | 2.6 | 3.5 | 0.00 | 0.00 | 0.00 | 60 | 1015.8 |
| 20260507162248 | 57 | 112 | 1.7 | 1.7 | 0.00 | 0.00 | 0.00 | 64 | 1015.8 |
| 20260507161728 | 57 | 112 | 4.3 | 4.3 | 0.00 | 0.00 | 0.00 | 65 | 1015.8 |
| 20260507161207 | 57 | 90 | 3.5 | 4.3 | 0.00 | 0.00 | 0.00 | 67 | 1015.7 |
| 20260507160646 | 57 | 112 | 3.5 | 4.3 | 0.00 | 0.00 | 0.00 | 68 | 1015.8 |
| 20260507160125 | 57 | 90 | 3.5 | 4.3 | 0.00 | 0.00 | 0.00 | 66 | 1015.8 |
| 20260507155604 | 57 | 90 | 1.7 | 1.7 | 0.00 | 0.00 | 0.00 | 67 | 1015.8 |
| 20260507155043 | 57 | 90 | 2.6 | 2.6 | 0.00 | 0.00 | 0.00 | 63 | 1015.9 |
| 20260507154522 | 57 | 112 | 1.7 | 1.7 | 0.00 | 0.00 | 0.00 | 64 | 1015.9 |
| 20260507154000 | 57 | 112 | 1.7 | 1.7 | 0.00 | 0.00 | 0.00 | 64 | 1016.0 |
| 20260507153440 | 57 | 112 | 1.7 | 1.7 | 0.00 | 0.00 | 0.00 | 64 | 1016.0 |
| 20260507152919 | 57 | 112 | 2.6 | 3.5 | 0.00 | 0.00 | 0.00 | 64 | 1016.1 |
| 20260507152358 | 56 | 112 | 0.9 | 0.9 | 0.00 | 0.00 | 0.00 | 66 | 1016.1 |
| 20260507151837 | 56 | 90 | 0.0 | 0.0 | 0.00 | 0.00 | 0.00 | 68 | 1016.1 |
| 20260507151316 | 56 | 112 | 1.7 | 1.7 | 0.00 | 0.00 | 0.00 | 68 | 1016.1 |
| 20260507150520 | 56 | 90 | 1.7 | 1.7 | 0.00 | 0.00 | 0.00 | 68 | 1016.2 |
| 20260507145959 | 56 | 112 | 3.5 | 4.3 | 0.00 | 0.00 | 0.00 | 67 | 1016.2 |
| 20260507145439 | 56 | 112 | 1.7 | 1.7 | 0.00 | 0.00 | 0.00 | 68 | 1016.2 |
| 20260507144918 | 56 | 112 | 1.7 | 1.7 | 0.00 | 0.00 | 0.00 | 67 | 1016.3 |
| 20260507144357 | 57 | 90 | 1.7 | 1.7 | 0.00 | 0.00 | 0.00 | 67 | 1016.3 |
| 20260507143836 | 57 | 292 | 0.9 | 0.9 | 0.00 | 0.00 | 0.00 | 65 | 1016.4 |
| 20260507143315 | 56 | 112 | 1.7 | 1.7 | 0.00 | 0.00 | 0.00 | 65 | 1016.4 |
| 20260507142754 | 56 | 135 | 2.6 | 2.6 | 0.00 | 0.00 | 0.00 | 68 | 1016.4 |
| 20260507142233 | 56 | 112 | 1.7 | 1.7 | 0.00 | 0.00 | 0.00 | 70 | 1016.5 |
| 20260507141712 | 56 | 135 | 0.9 | 0.9 | 0.00 | 0.00 | 0.00 | 68 | 1016.6 |
| 20260507141152 | 56 | 90 | 4.3 | 4.3 | 0.00 | 0.00 | 0.00 | 69 | 1016.6 |
| 20260507140631 | 56 | 90 | 4.3 | 4.3 | 0.00 | 0.00 | 0.00 | 68 | 1016.7 |
| 20260507140110 | 56 | 112 | 2.6 | 2.6 | 0.00 | 0.00 | 0.00 | 67 | 1016.7 |
| 20260507135548 | 56 | 112 | 0.9 | 0.9 | 0.00 | 0.00 | 0.00 | 68 | 1016.8 |
| 20260507135027 | 55 | 135 | 1.7 | 1.7 | 0.00 | 0.00 | 0.00 | 68 | 1016.8 |
| 20260507134232 | 55 | 112 | 5.2 | 5.2 | 0.00 | 0.00 | 0.00 | 68 | 1016.9 |
| 20260507133711 | 56 | 90 | 4.3 | 4.3 | 0.00 | 0.00 | 0.00 | 68 | 1016.9 |
| 20260507132915 | 56 | 112 | 1.7 | 1.7 | 0.00 | 0.00 | 0.00 | 67 | 1017.0 |
| 20260507132120 | 55 | 112 | 2.6 | 3.5 | 0.00 | 0.00 | 0.00 | 67 | 1017.0 |
| 20260507131600 | 54 | 112 | 4.3 | 5.2 | 0.00 | 0.00 | 0.00 | 70 | 1017.0 |
| 20260507131039 | 54 | 68 | 1.7 | 1.7 | 0.00 | 0.00 | 0.00 | 71 | 1017.1 |
| 20260507130518 | 53 | 112 | 2.6 | 2.6 | 0.00 | 0.00 | 0.00 | 70 | 1017.1 |
| 20260507125723 | 53 | 90 | 2.6 | 2.6 | 0.00 | 0.00 | 0.00 | 74 | 1017.2 |
| 20260507125203 | 52 | 112 | 2.6 | 2.6 | 0.00 | 0.00 | 0.00 | 73 | 1017.2 |
| 20260507124642 | 52 | 112 | 2.6 | 2.6 | 0.00 | 0.00 | 0.00 | 77 | 1017.2 |
| 20260507124121 | 52 | 112 | 1.7 | 1.7 | 0.00 | 0.00 | 0.00 | 77 | 1017.2 |
| 20260507123600 | 51 | 112 | 0.9 | 0.9 | 0.00 | 0.00 | 0.00 | 76 | 1017.2 |
| 20260507123039 | 51 | 112 | 3.5 | 3.5 | 0.00 | 0.00 | 0.00 | 78 | 1017.2 |